Location: El Corozo
(10.5833°N, 66.9667°W)
Time: 11:56:21
(UTC+00:00)

CZ-4C R/B - Pass Details

Date: 23 May 2024
Orbit: 528 x 1465 km, 63.4° (Epoch: 21 June)

Event Time Altitude Azimuth Distance (km) Brightness Sun altitude
Exits shadow 08:19:10 51° 357° (N) 688 1.8 -24.4°
Drops below altitude 10° 08:22:25 10° 18° (NNE) 1,890 4.6 -23.7°
Sets 08:24:48 0° 21° (NNE) 2,881 5.7 -23.2°
